Location: Bijele Vode
(45.2833°N, 16.2000°E)
Time: 14:41:32
(UTC+00:00)

DMSP B5D2-2 - Pass Details

Date: 18 September 2020
Orbit: 790 x 806 km, 98.3° (Epoch: 30 October)

Event Time Altitude Azimuth Distance (km) Brightness Sun altitude
Rises 18:39:27 0° 15° (NNE) 3,332 7.4 -17.9°
Reaches altitude 10° 18:41:49 10° 18° (NNE) 2,397 6.6 -18.3°
Maximum altitude 18:47:07 71° 102° (ESE) 854 4.0 -19.2°
Drops below altitude 10° 18:52:22 10° 187° (S) 2,378 6.4 -20.0°
Sets 18:54:42 0° 189° (S) 3,303 7.1 -20.4°
